Time,TemperatureF,DewpointF,PressureIn,WindDirection,WindDirectionDegrees,WindSpeedMPH,WindSpeedGustMPH,Humidity,HourlyPrecipIn,Conditions,Clouds,dailyrainin,SoftwareType,DateUTC
2015-02-28 00:08:00,10.6,3.0,30.70,SE,126,2.0,2.0,72,0.00,,,0.00,weatherlink.com 1.10,2015-02-28 05:08:00,
2015-02-28 00:23:00,10.7,3.0,30.71,SE,126,0.0,2.0,71,0.00,,,0.00,weatherlink.com 1.10,2015-02-28 05:23:00,
2015-02-28 00:38:00,10.2,2.0,30.71,SE,126,0.0,2.0,70,0.00,,,0.00,weatherlink.com 1.10,2015-02-28 05:38:00,
2015-02-28 00:53:00,9.4,2.0,30.72,SE,126,0.0,1.0,71,0.00,,,0.00,weatherlink.com 1.10,2015-02-28 05:53:00,
2015-02-28 01:08:00,8.9,2.0,30.71,SE,126,0.0,1.0,72,0.00,,,0.00,weatherlink.com 1.10,2015-02-28 06:08:00,
2015-02-28 01:23:00,8.9,2.0,30.72,SE,126,0.0,2.0,73,0.00,,,0.00,weatherlink.com 1.10,2015-02-28 06:23:00,
2015-02-28 01:38:00,8.3,1.0,30.72,SE,126,0.0,1.0,73,0.00,,,0.00,weatherlink.com 1.10,2015-02-28 06:38:00,
2015-02-28 01:53:00,8.1,1.0,30.73,SE,126,0.0,1.0,74,0.00,,,0.00,weatherlink.com 1.10,2015-02-28 06:53:00,
2015-02-28 02:08:00,7.1,0.0,30.73,SE,126,0.0,2.0,74,0.00,,,0.00,weatherlink.com 1.10,2015-02-28 07:08:00,
2015-02-28 02:23:00,6.3,0.0,30.73,SE,126,0.0,1.0,74,0.00,,,0.00,weatherlink.com 1.10,2015-02-28 07:23:00,
2015-02-28 02:38:00,5.8,-1.0,30.73,SE,126,0.0,1.0,75,0.00,,,0.00,weatherlink.com 1.10,2015-02-28 07:38:00,
2015-02-28 02:53:00,6.2,0.0,30.73,SE,126,0.0,3.0,76,0.00,,,0.00,weatherlink.com 1.10,2015-02-28 07:53:00,
2015-02-28 03:08:00,6.0,0.0,30.73,SE,126,1.0,2.0,76,0.00,,,0.00,weatherlink.com 1.10,2015-02-28 08:08:00,
2015-02-28 03:23:00,6.4,0.0,30.72,SE,129,0.0,3.0,75,0.00,,,0.00,weatherlink.com 1.10,2015-02-28 08:23:00,
2015-02-28 03:38:00,6.2,0.0,30.73,SE,129,2.0,2.0,75,0.00,,,0.00,weatherlink.com 1.10,2015-02-28 08:38:00,
2015-02-28 03:53:00,5.7,-1.0,30.72,SE,129,1.0,2.0,75,0.00,,,0.00,weatherlink.com 1.10,2015-02-28 08:53:00,
2015-02-28 04:09:00,5.8,-1.0,30.72,SE,129,0.0,2.0,74,0.00,,,0.00,weatherlink.com 1.10,2015-02-28 09:09:00,
2015-02-28 04:23:00,5.3,-1.0,30.72,SE,129,1.0,1.0,74,0.00,,,0.00,weatherlink.com 1.10,2015-02-28 09:23:00,
2015-02-28 04:38:00,5.5,-1.0,30.72,SE,129,0.0,2.0,74,0.00,,,0.00,weatherlink.com 1.10,2015-02-28 09:38:00,
2015-02-28 04:54:00,5.3,-1.0,30.73,SE,129,0.0,2.0,74,0.00,,,0.00,weatherlink.com 1.10,2015-02-28 09:54:00,
2015-02-28 05:09:00,5.4,-1.0,30.73,SE,129,0.0,2.0,74,0.00,,,0.00,weatherlink.com 1.10,2015-02-28 10:09:00,
2015-02-28 05:24:00,5.9,0.0,30.74,SE,129,1.0,2.0,75,0.00,,,0.00,weatherlink.com 1.10,2015-02-28 10:24:00,
2015-02-28 05:39:00,6.2,0.0,30.74,SE,129,1.0,3.0,74,0.00,,,0.00,weatherlink.com 1.10,2015-02-28 10:39:00,
2015-02-28 05:54:00,6.0,-1.0,30.74,SE,129,0.0,2.0,74,0.00,,,0.00,weatherlink.com 1.10,2015-02-28 10:54:00,
2015-02-28 06:09:00,5.8,-1.0,30.73,SE,129,2.0,4.0,74,0.00,,,0.00,weatherlink.com 1.10,2015-02-28 11:09:00,
2015-02-28 06:24:00,6.5,0.0,30.74,SE,132,3.0,5.0,75,0.00,,,0.00,weatherlink.com 1.10,2015-02-28 11:24:00,
2015-02-28 06:39:00,6.8,0.0,30.75,SE,133,2.0,4.0,74,0.00,,,0.00,weatherlink.com 1.10,2015-02-28 11:39:00,
2015-02-28 06:54:00,7.1,0.0,30.76,SE,133,1.0,5.0,74,0.00,,,0.00,weatherlink.com 1.10,2015-02-28 11:54:00,
2015-02-28 07:09:00,7.3,1.0,30.76,SE,133,2.0,3.0,74,0.00,,,0.00,weatherlink.com 1.10,2015-02-28 12:09:00,
2015-02-28 07:24:00,7.6,1.0,30.76,SE,134,1.0,5.0,73,0.00,,,0.00,weatherlink.com 1.10,2015-02-28 12:24:00,
2015-02-28 07:40:00,7.9,1.0,30.77,SE,138,3.0,5.0,72,0.00,,,0.00,weatherlink.com 1.10,2015-02-28 12:40:00,
2015-02-28 07:54:00,8.5,1.0,30.77,SE,127,3.0,6.0,72,0.00,,,0.00,weatherlink.com 1.10,2015-02-28 12:54:00,
2015-02-28 08:09:00,9.3,2.0,30.77,ESE,115,1.0,4.0,71,0.00,,,0.00,weatherlink.com 1.10,2015-02-28 13:09:00,
2015-02-28 08:24:00,10.2,2.0,30.78,ESE,105,2.0,5.0,70,0.00,,,0.00,weatherlink.com 1.10,2015-02-28 13:24:00,
2015-02-28 08:39:00,11.2,2.0,30.78,SE,126,5.0,8.0,67,0.00,,,0.00,weatherlink.com 1.10,2015-02-28 13:39:00,
2015-02-28 08:55:00,12.1,2.0,30.78,ESE,108,2.0,8.0,65,0.00,,,0.00,weatherlink.com 1.10,2015-02-28 13:55:00,
2015-02-28 09:10:00,12.8,3.0,30.79,East,91,7.0,8.0,64,0.00,,,0.00,weatherlink.com 1.10,2015-02-28 14:10:00,
2015-02-28 09:25:00,13.1,2.0,30.79,SE,124,4.0,8.0,62,0.00,,,0.00,weatherlink.com 1.10,2015-02-28 14:25:00,
2015-02-28 09:40:00,13.7,2.0,30.79,ESE,119,3.0,10.0,61,0.00,,,0.00,weatherlink.com 1.10,2015-02-28 14:40:00,
2015-02-28 09:55:00,14.4,2.0,30.78,SE,127,2.0,8.0,59,0.00,,,0.00,weatherlink.com 1.10,2015-02-28 14:55:00,
2015-02-28 10:10:00,15.2,4.0,30.78,ESE,105,5.0,11.0,60,0.00,,,0.00,weatherlink.com 1.10,2015-02-28 15:10:00,
2015-02-28 10:25:00,16.1,4.0,30.78,ESE,103,3.0,8.0,59,0.00,,,0.00,weatherlink.com 1.10,2015-02-28 15:25:00,
2015-02-28 10:40:00,16.4,4.0,30.78,SE,143,2.0,8.0,59,0.00,,,0.00,weatherlink.com 1.10,2015-02-28 15:40:00,
2015-02-28 10:55:00,16.5,3.0,30.78,ESE,122,4.0,10.0,56,0.00,,,0.00,weatherlink.com 1.10,2015-02-28 15:55:00,
2015-02-28 11:10:00,16.8,4.0,30.77,SSE,154,5.0,9.0,57,0.00,,,0.00,weatherlink.com 1.10,2015-02-28 16:10:00,
2015-02-28 11:25:00,17.1,4.0,30.77,SE,138,6.0,10.0,56,0.00,,,0.00,weatherlink.com 1.10,2015-02-28 16:25:00,
2015-02-28 11:40:00,17.6,5.0,30.77,SE,144,2.0,8.0,59,0.00,,,0.00,weatherlink.com 1.10,2015-02-28 16:40:00,
2015-02-28 11:55:00,18.0,5.0,30.77,South,179,3.0,9.0,57,0.00,,,0.00,weatherlink.com 1.10,2015-02-28 16:55:00,
2015-02-28 12:10:00,18.2,5.0,30.76,SSE,157,6.0,8.0,57,0.00,,,0.00,weatherlink.com 1.10,2015-02-28 17:10:00,
2015-02-28 12:25:00,18.5,6.0,30.75,SE,137,7.0,10.0,58,0.00,,,0.00,weatherlink.com 1.10,2015-02-28 17:25:00,
2015-02-28 12:40:00,19.4,7.0,30.74,ESE,109,4.0,9.0,58,0.00,,,0.00,weatherlink.com 1.10,2015-02-28 17:40:00,
2015-02-28 12:55:00,19.4,6.0,30.73,ESE,106,3.0,10.0,57,0.00,,,0.00,weatherlink.com 1.10,2015-02-28 17:55:00,
2015-02-28 13:10:00,20.0,8.0,30.73,ENE,72,3.0,9.0,60,0.00,,,0.00,weatherlink.com 1.10,2015-02-28 18:10:00,